User: anonymous   Login
Location: Unspecified
(0.0000°N, 0.0000°E)
Time: 00:41:55
(UTC+00:00)
Language:

CP3 - Orbit

View from above orbital plane
View from above orbital plane
View from above satellite
View from above satellite

Ground track
Ground track

The orbit data is extracted from the following two-line orbital elements,

1 31129U 07012N   24106.55729530  .00004888  00000-0  96133-3 0  9998
2 31129  98.3553  59.7007 0090286  14.3120 346.0606 14.60489557902785
Epoch (UTC): 15 April 2024 13:22:30
Eccentricity: 0.0090286
inclination: 98.3553°
perigee height: 628 km
apogee height: 755 km
right ascension of ascending node: 59.7007°
argument of perigee: 14.3120°
revolutions per day: 14.60489557
mean anomaly at epoch: 346.0606°
orbit number at epoch: 90278

The dashed part of the orbit path shows where the satellite is in the earth's shadow,  

DLR